Weather History for Ahmedabad, India

Change the Weather History Date:

Friday, January 18, 2013

  Actual Average Record
Temperature  
Mean Temperature 63 °F -  
Max Temperature 72 °F 82 °F 87 °F (2000)
Min Temperature 54 °F 56 °F 42 °F (1998)
Degree Days  
Heating Degree Days 2    
Growing Degree Days 13 (Base 50)    
Moisture  
Dew Point 46 °F    
Average Humidity 55    
Maximum Humidity 82    
Minimum Humidity 21    
Precipitation  
Precipitation 0.00 in 0.00 in - ()
Sea Level Pressure  
Sea Level Pressure 30.03 in    
Wind  
Wind Speed 6 mph ()    
Max Wind Speed 13 mph    
Max Gust Speed -    
Visibility 2.6 miles    
Events      
Averages and records for this station are not official NWS values.
T = Trace of Precipitation, MM = Missing Value Source: Averaged Metar Reports

Daily Weather History Graph

Daily Weather History Graph

Search for Another Location

Airport:

Trip Planner

Search our weather history database for the weather conditions in past years. The results will help you decide how hot, cold, wet, or windy it might be!

Date:

Astronomy

Jan. 18, 2013 Rise Set
Actual Time 7:22 AM IST 6:17 PM IST
Civil Twilight 6:58 AM IST 6:41 PM IST
Nautical Twilight 6:31 AM IST 7:08 PM IST
Astronomical Twilight 6:03 AM IST 7:36 PM IST
Moon 11:40 AM IST (1/18) No Moon Set
Length of Visible Light 11h 42m
Length of Day
10h 54m
Waxing Crescent, 43% of the Moon is Illuminated
Jan 18
Waxing Crescent
Jan 19
First Quarter
Jan 27
Full
Feb 3
Last Quarter
Feb 10
New

Hourly Weather History & Observations

Time (IST) Temp. Dew Point Humidity Pressure Visibility Wind Dir Wind Speed Gust Speed Precip Events Conditions
1:10 AM 62.6 °F 55.4 °F 77% 29.95 in 2.5 mi WSW 4.6 mph - N/A   Haze
1:40 AM 60.8 °F 55.4 °F 82% 29.95 in 2.5 mi WSW 4.6 mph - N/A   Haze
2:10 AM 62.6 °F 55.4 °F 77% 29.95 in 2.5 mi SW 4.6 mph - N/A   Haze
2:30 AM 61 °F 56 °F 80% 29.96 in 2 mi West 2.3 mph - -   Partly Cloudy
2:40 AM 60.8 °F 55.4 °F 82% 29.95 in 2.5 mi SW 4.6 mph - N/A   Haze
3:10 AM 60.8 °F 55.4 °F 82% 29.95 in 2.5 mi SW 4.6 mph - N/A   Haze
3:40 AM 62.6 °F 57.2 °F 82% 29.95 in 2.5 mi WSW 5.8 mph - N/A   Haze
4:10 AM 64.4 °F 57.2 °F 77% 29.95 in 2.5 mi WSW 9.2 mph - N/A   Haze
4:40 AM 62.6 °F 57.2 °F 82% 29.95 in 2.5 mi West 9.2 mph - N/A   Haze
5:30 AM 62 °F 57 °F 79% 29.98 in 2 mi West 6.9 mph - -   Haze
6:40 AM 57.2 °F 48.2 °F 72% 30.01 in 2.2 mi WNW 10.4 mph - N/A   Haze
8:30 AM 56 °F 49 °F 69% 30.08 in 1 mi WNW 5.8 mph - -   Haze
8:40 AM 55.4 °F 46.4 °F 72% 30.06 in 2.2 mi WNW 8.1 mph - N/A   Haze
9:10 AM 59.0 °F 48.2 °F 67% 30.09 in 2.5 mi WNW 9.2 mph - N/A   Smoke
9:40 AM 64.4 °F 51.8 °F 64% 30.09 in 2.5 mi NW 6.9 mph - N/A   Smoke
10:10 AM 68.0 °F 53.6 °F 60% 30.12 in 2.5 mi NW 8.1 mph - N/A   Smoke
10:40 AM 68.0 °F 51.8 °F 56% 30.12 in 2.5 mi NW 6.9 mph - N/A   Smoke
11:10 AM 69.8 °F 51.8 °F 53% 30.12 in 2.5 mi NW 8.1 mph - N/A   Smoke
11:30 AM 64 °F 48 °F 45% 30.13 in 2 mi NW 4.6 mph - -   Smoke
11:40 AM 66.2 °F 48.2 °F 52% 30.09 in 2.5 mi NW 4.6 mph - N/A   Smoke
12:10 PM 66.2 °F 46.4 °F 49% 30.06 in 2.5 mi NNW 6.9 mph - N/A   Smoke
12:40 PM 68.0 °F 46.4 °F 46% 30.06 in 2.5 mi NW 9.2 mph - N/A   Smoke
1:40 PM 69.8 °F 48.2 °F 46% 30.04 in 3.7 mi North 10.4 mph - N/A   Unknown
2:10 PM 71.6 °F 46.4 °F 41% 30.01 in 3.7 mi NNW 10.4 mph - N/A   Unknown
2:30 PM 72 °F 40 °F 21% 30.05 in 2 mi NW 6.9 mph - -  
2:40 PM 77.0 °F 44.6 °F 32% 30.01 in 3.7 mi NW 10.4 mph - N/A   Unknown
3:40 PM 75.2 °F 41.0 °F 29% 30.01 in 3.7 mi NW 11.5 mph - N/A   Unknown
4:10 PM 71.6 °F 39.2 °F 31% 29.98 in 3.7 mi NNW 12.7 mph - N/A   Unknown
4:40 PM 69.8 °F 33.8 °F 27% 30.01 in 3.7 mi NW 11.5 mph - N/A   Unknown
5:10 PM 69.8 °F 35.6 °F 28% 30.01 in 3.7 mi NW 12.7 mph - N/A   Unknown
5:30 PM 70 °F 40 °F 22% 30.04 in 2 mi NNW 5.8 mph - -  
5:40 PM 68.0 °F 33.8 °F 28% 30.01 in 3.7 mi NNW 11.5 mph - N/A   Unknown
7:10 PM 62.6 °F 37.4 °F 39% 30.04 in 2.5 mi NNE 6.9 mph - N/A   Smoke
7:40 PM 62.6 °F 37.4 °F 39% 30.04 in 2.5 mi NW 5.8 mph - N/A   Smoke
8:10 PM 60.8 °F 39.2 °F 45% 30.04 in 2.5 mi NNW 4.6 mph - N/A   Smoke
8:30 PM 60 °F 44 °F 43% 30.08 in 2 mi North 6.9 mph - -  
8:40 PM 59.0 °F 41.0 °F 51% 30.06 in 2.5 mi NW 4.6 mph - N/A   Smoke
9:10 PM 57.2 °F 39.2 °F 51% 30.06 in 2.5 mi Variable 3.5 mph - N/A   Smoke
9:40 PM 57.2 °F 37.4 °F 48% 30.06 in 2.5 mi NW 4.6 mph - N/A   Smoke
10:10 PM 57.2 °F 39.2 °F 51% 30.06 in 2.5 mi North 3.5 mph - N/A   Smoke
10:40 PM 57.2 °F 39.2 °F 51% 30.06 in 2.5 mi North 3.5 mph - N/A   Smoke
11:10 PM 55.4 °F 39.2 °F 54% 30.06 in 2.5 mi North 3.5 mph - N/A   Smoke
11:30 PM 54 °F 45 °F 62% 30.10 in 2 mi Calm Calm - -   Haze